Weather in Vakhutki

Russia / Ivanovo Oblast     57°15′25″N   42°15′02″E
temp.,
°C
wind,
m/s
gust,
m/s
humid.,
%
clouds,
%
prec.,
mm/h
press.,
hPa
HPBL,
m
3 march, wed
wed300:00−6nw5139046 0.0 1005504
03:00−7nw5129170 0.0 1007541
06:00−8nw5129399 0.1 1008503
09:00−7wnw6119299 0.1 1010570
12:00−5wnw5989100 0.1 1009701
15:00−3w51090100 0.1 1008792
18:00−2w61295100 0.5 1005862
21:00−3w71391100 0.8 1004797
4 march, thu
thu400:00−3w51194100 0.2 1001644
03:00−3wsw61395100 0.9 999808
06:00−1w61292100 0.5 995895
09:00−3wnw7128396 1.0 994967
12:00−3wnw7118766 0.1 996910
15:00−2wnw588683 0.2 998997
18:00−5nw3791100 0.1 998161
21:00−10nnw239178 0.1 100030
5 march, fri
fri500:00−12nnw23950 0.0 100121
03:00−14nnw22960 0.0 100321
06:00−15nnw23970 0.0 100428
09:00−13nnw35931 0.0 1006213
12:00−8nnw24820 0.0 1007481
15:00−6wnw348236 0.0 1008730
18:00−11wsw239032 0.0 100824
21:00−12wsw239128 0.0 101029
6 march, sat
sat600:00−13wsw239747 0.1 101135
03:00−11nw369672 0.3 1012160
06:00−17nnw349640 0.0 101371
09:00−16nw259220 0.0 1014208
12:00−11wnw358436 0.0 1014515
15:00−9w578737 0.0 1013723
18:00−11w4993100 0.1 1012358
21:00−13wsw379495 0.1 1011116
7 march, sun
sun700:00−14sw389475 0.0 1010156
03:00−12ssw5119476 0.0 1007296
06:00−10ssw61487100 0.0 1003611
09:00−9ssw71393100 0.4 999913
12:00−6s81392100 0.6 9941064
15:00−4s81394100 1.9 9891090
18:00−3sw71296100 2.7 987890
21:00−9w41190100 3.6 988506